KD4TJG Weather Reports


Display with metric or nautical units.
time (UTC)temp
F
wind
direction
speed
MPH
gust
MPH
rain 1hr
in
rain 24hr
in
rain mn
in
humidity
%
barometer
mb
20260906172026 80 108 2.0 6.0 0.00 0.01 0.00 74 1014.2
20260906172020 80 116 2.0 4.0 0.00 0.01 0.00 74 1016.2
20260906171542 79 94 3.0 6.0 0.00 0.01 0.00 75 1014.2
20260906171023 79 124 2.0 4.0 0.00 0.01 0.00 76 1014.3
20260906170524 78 0 0.0 3.0 0.00 0.01 0.00 77 1014.3
20260906170051 78 146 0.0 6.0 0.00 0.01 0.00 78 1014.4
20260906165859 79 146 1.0 5.0 0.00 0.01 0.00 77 1016.4
20260906165525 78 146 0.0 6.0 0.00 0.01 0.00 77 1014.5
20260906165026 78 108 1.0 5.0 0.00 0.01 0.00 76 1014.5
20260906164909 79 60 1.0 4.0 0.00 0.01 0.00 78 1016.6
20260906164549 78 0 2.0 5.0 0.00 0.01 0.00 77 1014.5
20260906164026 78 0 0.0 4.0 0.00 0.01 0.00 77 1014.4
20260906163927 79 285 0.0 0.0 0.00 0.01 0.00 77 1016.5
20260906163529 78 331 1.0 4.0 0.00 0.01 0.00 77 1014.5
20260906163047 78 55 1.0 4.0 0.00 0.01 0.00 76 1014.5
20260906162950 79 112 1.0 3.0 0.00 0.01 0.00 76 1016.5
20260906162529 78 47 1.0 4.0 0.00 0.01 0.00 77 1014.3
20260906162023 78 350 1.0 4.0 0.00 0.01 0.00 76 1014.4
20260906161929 79 99 1.0 7.0 0.00 0.01 0.00 76 1016.4
20260906161558 78 36 1.0 8.0 0.00 0.01 0.00 76 1014.4
20260906161025 79 13 2.0 8.0 0.00 0.01 0.00 75 1014.3
20260906160525 79 56 2.0 9.0 0.00 0.01 0.00 74 1014.4
20260906160052 80 60 3.0 9.0 0.00 0.01 0.00 74 1014.4
20260906155808 80 114 2.0 9.0 0.00 0.01 0.00 73 1016.5
20260906155528 80 159 1.0 10.0 0.00 0.01 0.00 74 1014.4
20260906155029 79 50 2.0 10.0 0.00 0.01 0.00 77 1014.5
20260906154823 80 59 3.0 9.0 0.00 0.01 0.00 75 1016.5
20260906154547 80 80 4.0 10.0 0.00 0.01 0.00 75 1014.5
20260906154028 80 85 3.0 10.0 0.00 0.01 0.00 78 1014.5
20260906153806 80 93 4.0 9.0 0.00 0.01 0.00 77 1016.5
20260906153525 79 71 5.0 10.0 0.00 0.01 0.00 77 1014.5
20260906153041 78 71 5.0 10.0 0.00 0.01 0.00 77 1014.4
20260906152803 79 8 3.0 9.0 0.00 0.01 0.00 77 1016.5
20260906152525 79 360 3.0 9.0 0.00 0.01 0.00 78 1014.4
20260906152023 79 115 3.0 9.0 0.00 0.01 0.00 79 1014.5
20260906151739 78 347 3.0 7.0 0.00 0.01 0.00 80 1016.4
20260906151553 77 12 3.0 9.0 0.00 0.01 0.00 80 1014.4
20260906151024 77 63 3.0 9.0 0.00 0.01 0.00 80 1014.5
20260906150718 78 70 1.0 5.0 0.00 0.01 0.00 81 1016.6
20260906150524 77 349 2.0 5.0 0.00 0.01 0.00 81 1014.6
20260906150055 77 143 0.0 7.0 0.00 0.01 0.00 82 1014.6
20260906145524 76 72 3.0 7.0 0.00 0.01 0.00 82 1014.5
20260906145023 76 68 2.0 7.0 0.00 0.01 0.00 82 1014.5
20260906144554 76 303 1.0 5.0 0.00 0.01 0.00 82 1014.7
20260906144541 77 301 1.0 4.0 0.00 0.01 0.00 82 1016.8
20260906144024 76 312 2.0 5.0 0.00 0.01 0.00 82 1014.5
20260906143525 76 41 1.0 5.0 0.00 0.01 0.00 83 1014.4
20260906143043 76 45 1.0 5.0 0.00 0.01 0.00 84 1014.4
20260906142525 76 0 1.0 7.0 0.00 0.01 0.00 84 1014.5
20260906142413 76 47 1.0 2.0 0.00 0.01 0.00 84 1016.5
20260906142025 75 0 0.0 7.0 0.00 0.01 0.00 84 1014.5
20260906141552 75 27 1.0 4.0 0.00 0.01 0.00 84 1014.4
20260906141418 76 62 1.0 3.0 0.00 0.01 0.00 84 1016.4
20260906141025 75 345 1.0 4.0 0.00 0.01 0.00 83 1014.3
20260906140527 76 10 1.0 5.0 0.00 0.01 0.00 83 1014.2
20260906140358 76 293 1.0 3.0 0.00 0.01 0.00 83 1016.3
20260906140046 76 332 1.0 5.0 0.00 0.01 0.00 84 1014.1
20260906135527 76 70 2.0 5.0 0.00 0.01 0.00 84 1014.1
20260906135401 76 69 0.0 3.0 0.00 0.01 0.00 84 1016.1
20260906135023 75 0 0.0 4.0 0.00 0.01 0.00 85 1014.1
20260906134545 75 16 1.0 4.0 0.00 0.01 0.00 85 1014.2
20260906134401 76 11 0.0 2.0 0.00 0.01 0.00 85 1016.2
20260906134025 75 352 1.0 3.0 0.00 0.01 0.00 85 1014.2
20260906133523 75 47 0.0 6.0 0.00 0.01 0.00 85 1014.1
20260906133347 76 37 2.0 10.0 0.00 0.01 0.00 85 1016.1
20260906133041 75 22 2.0 11.0 0.00 0.01 0.00 85 1014.0
20260906132525 76 43 4.0 11.0 0.00 0.01 0.00 84 1014.0
20260906132329 76 72 3.0 10.0 0.00 0.01 0.00 85 1016.0
20260906132024 76 49 3.0 11.0 0.00 0.01 0.00 86 1013.9
20260906131549 76 94 2.0 8.0 0.00 0.01 0.00 87 1013.8
20260906131030 75 95 2.0 8.0 0.00 0.01 0.00 87 1013.9
20260906130524 74 66 1.0 6.0 0.00 0.01 0.00 88 1014.0
20260906130210 74 14 1.0 5.0 0.00 0.01 0.00 88 1016.0
20260906130059 73 112 2.0 6.0 0.00 0.01 0.00 88 1013.8
20260906125524 73 326 1.0 4.0 0.00 0.01 0.00 88 1014.0
20260906125204 73 14 0.0 5.0 0.00 0.01 0.00 88 1016.0
20260906125023 72 62 1.0 6.0 0.00 0.01 0.00 88 1013.8
20260906124544 72 27 0.0 6.0 0.00 0.01 0.00 88 1014.0
20260906124227 72 279 1.0 5.0 0.00 0.01 0.00 88 1016.1
20260906124026 72 33 2.0 6.0 0.00 0.01 0.00 88 1013.9
20260906123524 72 98 3.0 6.0 0.00 0.01 0.00 88 1013.7
20260906123231 72 29 0.0 4.0 0.00 0.01 0.00 88 1015.9
20260906123053 72 85 1.0 3.0 0.00 0.01 0.00 88 1014.0
20260906122524 71 0 0.0 1.0 0.00 0.01 0.00 88 1014.2
20260906122200 72 177 0.0 0.0 0.00 0.01 0.00 88 1016.1
20260906122024 72 177 0.0 4.0 0.00 0.01 0.00 88 1014.1
20260906121555 71 0 0.0 4.0 0.00 0.01 0.00 88 1014.0
20260906121024 71 27 2.0 4.0 0.00 0.01 0.00 88 1014.0
20260906120523 71 0 0.0 3.0 0.00 0.01 0.00 88 1013.8
20260906120048 72 85 0.0 2.0 0.00 0.01 0.00 88 1015.8
20260906120046 71 85 1.0 3.0 0.00 0.01 0.00 88 1013.7
20260906115523 71 0 0.0 0.0 0.00 0.01 0.00 88 1013.7
20260906115023 71 0 0.0 0.0 0.00 0.01 0.00 88 1013.6
20260906114605 70 0 0.0 0.0 0.00 0.01 0.00 88 1013.6
20260906114024 70 0 0.0 0.0 0.00 0.01 0.00 88 1013.6
20260906114001 71 85 0.0 0.0 0.00 0.01 0.00 88 1015.6
20260906113524 70 0 0.0 1.0 0.00 0.01 0.00 88 1013.4
20260906113056 70 0 0.0 2.0 0.00 0.01 0.00 88 1013.3
20260906112524 70 0 0.0 2.0 0.00 0.01 0.00 88 1013.3
20260906112025 70 85 0.0 2.0 0.00 0.01 0.00 88 1013.2
20260906111818 71 85 0.0 0.0 0.00 0.01 0.00 88 1015.2
20260906111546 70 0 0.0 4.0 0.00 0.01 0.00 88 1013.2
20260906111023 70 0 1.0 4.0 0.00 0.01 0.00 88 1013.2
20260906110524 70 102 2.0 4.0 0.00 0.01 0.00 88 1013.1
20260906110045 70 106 1.0 3.0 0.00 0.01 0.00 88 1013.0
20260906105634 71 75 0.0 1.0 0.00 0.01 0.00 88 1015.2
20260906105524 70 95 0.0 1.0 0.00 0.01 0.00 88 1013.1
20260906105026 70 0 0.0 1.0 0.00 0.01 0.00 88 1013.2
20260906104602 71 149 0.0 0.0 0.00 0.01 0.00 88 1015.1
20260906104552 70 0 0.0 1.0 0.00 0.01 0.00 88 1013.1
20260906104024 70 0 0.0 1.0 0.00 0.01 0.00 88 1013.1
20260906103535 71 149 0.0 0.0 0.00 0.01 0.00 88 1015.2
20260906103523 70 0 0.0 1.0 0.00 0.01 0.00 88 1013.2
20260906103051 70 0 0.0 2.0 0.00 0.01 0.00 88 1013.1
20260906102524 70 0 0.0 2.0 0.00 0.01 0.00 88 1013.0
20260906102518 70 149 0.0 0.0 0.00 0.01 0.00 88 1015.0
20260906102028 70 0 0.0 2.0 0.00 0.01 0.00 88 1013.0
20260906101549 70 0 0.0 2.0 0.00 0.01 0.00 88 1012.8
20260906101501 70 106 0.0 0.0 0.00 0.01 0.00 88 1014.8
20260906101024 70 0 0.0 2.0 0.00 0.01 0.00 88 1012.8
20260906100525 70 0 0.0 2.0 0.00 0.01 0.00 88 1012.5
20260906100448 70 161 0.0 1.0 0.00 0.01 0.00 88 1014.5
20260906100041 69 47 0.0 1.0 0.00 0.01 0.00 88 1012.4
20260906095525 69 0 0.0 1.0 0.00 0.01 0.00 88 1012.4
20260906095419 70 47 0.0 0.0 0.00 0.01 0.00 88 1014.5
20260906095023 69 0 0.0 1.0 0.00 0.01 0.00 88 1012.3
20260906094552 69 0 0.0 0.0 0.00 0.01 0.00 88 1012.4
20260906094417 69 139 0.0 0.0 0.00 0.01 0.00 88 1014.3
20260906094024 69 0 0.0 0.0 0.00 0.01 0.00 88 1012.3
20260906093525 69 0 0.0 0.0 0.00 0.01 0.00 88 1012.4
20260906093405 69 139 0.0 0.0 0.00 0.01 0.00 88 1014.4
20260906093052 69 0 0.0 1.0 0.00 0.01 0.00 88 1012.2
20260906092524 69 0 0.0 1.0 0.00 0.01 0.00 88 1012.3
20260906092358 69 139 0.0 0.0 0.00 0.01 0.00 88 1014.4
20260906092025 69 0 0.0 1.0 0.00 0.01 0.00 88 1012.4
20260906091546 68 0 0.0 1.0 0.00 0.01 0.00 88 1012.2
20260906091404 69 139 0.0 0.0 0.00 0.01 0.00 88 1014.2
20260906091024 68 0 0.0 1.0 0.00 0.01 0.00 88 1012.2
20260906090524 68 0 0.0 1.0 0.00 0.01 0.00 88 1012.2
20260906090405 68 139 0.0 0.0 0.00 0.01 0.00 88 1014.3
20260906090043 68 0 0.0 1.0 0.00 0.01 0.00 88 1012.1
20260906085525 68 139 0.0 1.0 0.00 0.01 0.00 88 1012.0
20260906085403 68 139 0.0 0.0 0.00 0.01 0.00 88 1014.0
20260906085025 68 139 0.0 1.0 0.00 0.01 0.00 88 1012.0
20260906084549 68 0 0.0 0.0 0.00 0.01 0.00 88 1011.9
20260906084401 68 139 0.0 0.0 0.00 0.01 0.00 88 1013.8
20260906084024 68 0 0.0 0.0 0.00 0.01 0.00 88 1012.0
20260906083529 68 0 0.0 1.0 0.00 0.01 0.00 88 1011.9
20260906083352 68 139 0.0 0.0 0.00 0.01 0.00 88 1013.8
20260906083049 67 0 0.0 1.0 0.00 0.01 0.00 88 1011.7
20260906082526 67 0 0.0 0.0 0.00 0.01 0.00 88 1011.6
20260906082401 68 139 0.0 0.0 0.00 0.01 0.00 88 1013.7
20260906082023 67 0 0.0 1.0 0.00 0.01 0.00 88 1011.7
20260906081551 68 0 0.0 1.0 0.00 0.01 0.00 88 1011.6
20260906081420 68 139 0.0 0.0 0.00 0.01 0.00 88 1013.6
20260906081026 68 0 0.0 1.0 0.00 0.01 0.00 88 1011.6
20260906080523 68 0 0.0 1.0 0.00 0.01 0.00 88 1011.6
20260906080349 68 139 0.0 0.0 0.00 0.01 0.00 88 1013.6
20260906080054 68 139 0.0 1.0 0.00 0.01 0.00 88 1011.6
20260906075524 67 0 0.0 1.0 0.00 0.01 0.00 88 1011.5
20260906075348 68 139 0.0 0.0 0.00 0.01 0.00 88 1013.6
20260906075024 67 0 0.0 1.0 0.00 0.01 0.00 88 1011.7
20260906074557 68 0 0.0 2.0 0.00 0.01 0.00 88 1011.7
20260906074353 68 139 0.0 0.0 0.00 0.01 0.00 88 1013.8
20260906074024 68 0 0.0 2.0 0.00 0.01 0.00 88 1011.7
20260906073525 68 139 0.0 2.0 0.00 0.01 0.00 88 1011.7
20260906073053 68 0 0.0 1.0 0.00 0.01 0.00 88 1011.6
20260906072525 68 0 0.0 1.0 0.00 0.01 0.00 88 1011.6
20260906072146 68 139 0.0 0.0 0.00 0.01 0.00 88 1013.7
20260906072025 68 0 0.0 0.0 0.00 0.01 0.00 88 1011.6
20260906071547 68 0 0.0 1.0 0.00 0.01 0.00 88 1011.7
20260906071023 68 0 0.0 1.0 0.00 0.01 0.00 88 1011.7
20260906070525 68 0 0.0 0.0 0.00 0.01 0.00 88 1011.8
20260906070040 68 0 0.0 1.0 0.00 0.01 0.00 88 1011.9
20260906070004 68 139 0.0 0.0 0.00 0.01 0.00 88 1013.9
20260906065525 68 0 0.0 1.0 0.00 0.04 0.00 88 1011.9
20260906065027 69 139 0.0 0.0 0.00 0.01 0.00 88 1014.0
20260906065025 68 0 0.0 0.0 0.00 0.04 0.00 88 1011.9
20260906064551 68 0 0.0 0.0 0.00 0.04 0.00 88 1012.0
20260906064024 68 0 0.0 1.0 0.00 0.04 0.00 88 1012.0
20260906063525 68 0 0.0 1.0 0.00 0.04 0.00 88 1012.1
20260906063041 69 0 0.0 1.0 0.00 0.04 0.00 88 1012.0
20260906062523 69 0 0.0 0.0 0.00 0.04 0.00 88 1012.0
20260906062027 69 0 0.0 1.0 0.00 0.04 0.00 88 1012.0
20260906061753 69 139 0.0 0.0 0.00 0.04 0.00 88 1014.0
20260906061556 69 0 0.0 1.0 0.00 0.04 0.00 88 1012.0
20260906061024 69 0 0.0 1.0 0.00 0.04 0.00 88 1012.0
20260906060751 69 139 0.0 0.0 0.00 0.04 0.00 88 1014.0
20260906060524 69 0 0.0 1.0 0.00 0.04 0.00 88 1012.0
20260906060047 68 0 0.0 1.0 0.00 0.04 0.00 88 1011.9
20260906055746 69 139 0.0 0.0 0.00 0.04 0.00 88 1013.9
20260906055523 69 139 0.0 1.0 0.00 0.04 0.00 88 1011.9
20260906055024 69 0 0.0 1.0 0.00 0.04 0.00 88 1012.0
20260906054739 70 139 0.0 0.0 0.00 0.04 0.00 88 1014.0
20260906054547 69 0 0.0 1.0 0.00 0.04 0.00 88 1012.0
20260906054022 69 0 0.0 1.0 0.00 0.04 0.00 88 1012.0
20260906053752 70 133 0.0 0.0 0.00 0.04 0.00 88 1014.1
20260906053523 69 0 0.0 0.0 0.00 0.04 0.00 88 1012.0
20260906053041 69 0 0.0 2.0 0.00 0.04 0.00 88 1011.9
20260906052754 70 90 0.0 1.0 0.00 0.04 0.00 88 1014.0
20260906052524 69 0 0.0 2.0 0.00 0.04 0.00 88 1011.9
20260906052025 69 90 0.0 2.0 0.00 0.04 0.00 88 1012.1
20260906051600 70 0 0.0 2.0 0.00 0.04 0.00 88 1012.2
20260906051024 69 0 0.0 2.0 0.00 0.04 0.00 88 1012.2
20260906050524 70 193 0.0 2.0 0.00 0.04 0.00 88 1012.2
20260906050053 70 0 0.0 2.0 0.00 0.04 0.00 88 1012.2
20260906045523 70 260 0.0 2.0 0.00 0.04 0.00 88 1012.3
20260906045416 71 260 0.0 0.0 0.00 0.04 0.00 88 1014.3
20260906045026 70 0 0.0 2.0 0.00 0.04 0.00 88 1012.3
20260906044544 70 260 0.0 2.0 0.00 0.04 0.00 88 1012.2
20260906044407 70 260 0.0 0.0 0.00 0.04 0.00 88 1014.3
20260906044023 70 0 0.0 2.0 0.00 0.04 0.00 88 1012.2
20260906043528 70 0 0.0 2.0 0.00 0.04 0.00 88 1012.4
20260906043353 71 260 0.0 0.0 0.00 0.04 0.00 88 1014.4
20260906043049 70 260 0.0 2.0 0.00 0.04 0.00 88 1012.5
20260906042523 70 0 0.0 1.0 0.00 0.04 0.00 88 1012.4
20260906042024 70 0 0.0 2.0 0.00 0.04 0.00 88 1012.4
20260906041550 70 0 0.0 2.0 0.00 0.04 0.00 88 1012.5
20260906041251 71 260 0.0 1.0 0.00 0.04 0.00 87 1014.4
20260906041024 70 0 0.0 1.0 0.00 0.04 0.00 87 1012.4
20260906040524 70 0 0.0 1.0 0.00 0.04 0.00 87 1012.4
20260906040241 71 260 0.0 0.0 0.00 0.04 0.00 87 1014.6
20260906040047 70 260 0.0 3.0 0.00 0.04 0.00 87 1012.5
20260906035523 70 0 0.0 3.0 0.00 0.04 0.04 87 1012.6
20260906035238 71 260 0.0 1.0 0.00 0.04 0.04 87 1014.5
20260906035023 70 267 0.0 2.0 0.00 0.04 0.04 87 1012.6
20260906034554 71 0 0.0 2.0 0.00 0.04 0.04 87 1012.6
20260906034234 72 12 0.0 1.0 0.00 0.04 0.04 87 1014.6
20260906034025 71 291 1.0 2.0 0.00 0.04 0.04 87 1012.5
20260906033523 71 0 0.0 3.0 0.00 0.04 0.04 87 1012.7
20260906033211 71 296 0.0 0.0 0.00 0.04 0.04 87 1014.5
20260906033053 71 258 0.0 3.0 0.00 0.04 0.04 87 1012.5
20260906032523 71 19 1.0 3.0 0.00 0.04 0.04 87 1012.6
20260906032024 71 0 0.0 2.0 0.00 0.04 0.04 87 1012.4
20260906031555 71 0 0.0 2.0 0.00 0.04 0.04 87 1012.3
20260906031024 71 168 0.0 1.0 0.00 0.04 0.04 87 1014.4
20260906030525 71 0 0.0 2.0 0.00 0.04 0.04 87 1012.4
20260906030050 71 168 1.0 2.0 0.00 0.04 0.04 87 1012.3
20260906030029 71 168 0.0 1.0 0.00 0.04 0.04 87 1014.3
20260906025524 71 0 0.0 1.0 0.00 0.05 0.04 87 1012.3
20260906025027 71 0 0.0 1.0 0.00 0.05 0.04 87 1012.3
20260906025018 71 168 0.0 0.0 0.00 0.05 0.04 87 1014.3
20260906024548 71 0 0.0 1.0 0.00 0.05 0.04 87 1012.3
20260906024026 71 0 0.0 0.0 0.00 0.05 0.04 87 1012.3
20260906024016 71 168 0.0 0.0 0.00 0.05 0.04 87 1014.3
20260906023524 71 0 0.0 1.0 0.00 0.05 0.04 87 1012.3
20260906023044 71 0 0.0 1.0 0.00 0.05 0.04 87 1012.2
20260906023006 71 168 0.0 0.0 0.00 0.05 0.04 87 1014.2
20260906022527 71 168 0.0 1.0 0.00 0.05 0.04 87 1012.2
20260906022024 71 0 0.0 1.0 0.00 0.05 0.04 87 1012.2
20260906022003 72 168 0.0 0.0 0.00 0.05 0.04 87 1014.2
20260906021554 71 0 0.0 0.0 0.00 0.05 0.04 87 1012.2
20260906021028 72 168 0.0 0.0 0.00 0.05 0.04 87 1014.1
20260906021021 71 0 0.0 1.0 0.00 0.05 0.04 87 1012.1
20260906020526 71 0 0.0 1.0 0.00 0.05 0.04 87 1012.1
20260906020057 72 0 0.0 1.0 0.00 0.05 0.04 87 1012.2
20260906020032 72 168 0.0 0.0 0.00 0.05 0.04 87 1014.3
20260906015538 72 0 0.0 1.0 0.00 0.05 0.04 87 1012.2
20260906015024 72 0 0.0 0.0 0.00 0.05 0.04 87 1012.3
20260906014550 72 0 0.0 0.0 0.00 0.05 0.04 87 1012.2
20260906014024 72 0 0.0 0.0 0.00 0.05 0.04 87 1012.2
20260906013523 72 0 0.0 0.0 0.00 0.05 0.04 87 1012.1
20260906013042 72 0 0.0 0.0 0.00 0.05 0.04 87 1012.1
20260906012737 73 168 0.0 0.0 0.00 0.05 0.04 87 1014.1
20260906012526 72 0 0.0 0.0 0.00 0.05 0.04 87 1011.9
20260906012025 72 0 0.0 0.0 0.00 0.05 0.04 87 1011.9
20260906011705 73 168 0.0 0.0 0.00 0.05 0.04 87 1013.9
20260906011550 73 0 0.0 0.0 0.00 0.05 0.04 87 1011.8
20260906011024 73 0 0.0 0.0 0.00 0.05 0.04 87 1011.8
20260906010525 73 0 0.0 0.0 0.00 0.05 0.04 87 1011.8
20260906010053 73 0 0.0 0.0 0.00 0.05 0.04 86 1011.8
20260906005526 73 0 0.0 0.0 0.00 0.05 0.04 86 1011.8
20260906005510 74 168 0.0 0.0 0.00 0.05 0.04 86 1013.8
20260906005027 73 0 0.0 0.0 0.00 0.05 0.04 86 1011.8
20260906004544 73 0 0.0 1.0 0.00 0.05 0.04 86 1011.8
20260906004532 74 168 0.0 0.0 0.00 0.05 0.04 86 1013.8
20260906004027 74 0 0.0 1.0 0.00 0.05 0.04 86 1011.6
20260906003524 74 0 0.0 2.0 0.00 0.05 0.04 85 1011.6
20260906003512 74 168 0.0 0.0 0.00 0.05 0.04 85 1013.5
20260906003043 74 0 0.0 2.0 0.00 0.05 0.04 85 1011.5
20260906002524 74 168 0.0 2.0 0.00 0.05 0.04 85 1011.5
20260906002026 75 168 0.0 2.0 0.00 0.05 0.04 85 1011.5
20260906001548 75 168 1.0 2.0 0.00 0.05 0.04 84 1011.4
20260906001433 75 168 0.0 1.0 0.00 0.05 0.04 84 1013.5
20260906001025 75 168 0.0 2.0 0.00 0.05 0.04 84 1011.4
20260906000525 76 258 0.0 1.0 0.00 0.05 0.04 84 1011.3
20260906000426 76 258 0.0 0.0 0.00 0.05 0.04 84 1013.4
20260906000050 76 0 0.0 1.0 0.00 0.05 0.04 83 1011.2
20260905235524 76 258 0.0 1.0 0.00 0.20 0.04 83 1011.2
20260905235357 77 258 0.0 0.0 0.00 0.13 0.04 82 1013.2
20260905235025 77 258 0.0 1.0 0.00 0.20 0.04 81 1011.1
20260905234548 77 0 0.0 1.0 0.00 0.20 0.04 81 1011.0
20260905234348 78 258 0.0 0.0 0.00 0.20 0.04 81 1013.0
20260905234024 77 258 0.0 1.0 0.00 0.20 0.04 80 1011.0
20260905233526 78 0 0.0 1.0 0.00 0.20 0.04 78 1011.0
20260905233359 79 258 0.0 0.0 0.00 0.20 0.04 78 1013.0
20260905233044 79 0 0.0 1.0 0.00 0.20 0.04 77 1011.0
20260905232525 79 0 0.0 1.0 0.00 0.20 0.04 76 1011.0
20260905232338 80 229 0.0 0.0 0.00 0.20 0.04 76 1013.0
20260905232024 80 0 0.0 3.0 0.00 0.20 0.04 75 1010.9
20260905231547 80 229 1.0 3.0 0.00 0.20 0.04 73 1010.9
20260905231024 81 223 0.0 3.0 0.00 0.20 0.04 73 1011.0
20260905230525 81 229 0.0 5.0 0.00 0.20 0.04 70 1010.9
20260905230230 82 203 1.0 3.0 0.00 0.20 0.04 70 1012.8
20260905230049 81 0 1.0 5.0 0.00 0.20 0.04 70 1010.8
20260905225522 82 195 1.0 4.0 0.00 0.20 0.04 71 1010.9
20260905225226 82 191 0.0 3.0 0.00 0.20 0.04 70 1013.0
20260905225023 82 183 0.0 4.0 0.00 0.20 0.04 71 1010.9
20260905224558 82 224 1.0 4.0 0.00 0.20 0.04 71 1011.0
20260905224025 82 0 1.0 3.0 0.00 0.20 0.04 71 1011.0
20260905223525 82 173 2.0 5.0 0.00 0.20 0.04 71 1011.0
20260905223048 82 205 1.0 6.0 0.00 0.20 0.04 71 1011.0
20260905222525 82 158 2.0 6.0 0.00 0.20 0.04 70 1011.0
20260905222024 82 201 2.0 6.0 0.00 0.20 0.04 71 1011.0
20260905221556 82 200 2.0 7.0 0.00 0.20 0.04 71 1011.2
20260905221028 81 189 3.0 7.0 0.00 0.20 0.04 71 1011.3
20260905220521 81 184 2.0 6.0 0.00 0.20 0.04 72 1011.3
20260905220104 81 247 3.0 7.0 0.00 0.20 0.04 73 1011.4
20260905215846 81 222 3.0 8.0 0.00 0.20 0.04 72 1013.4
20260905215525 81 221 3.0 10.0 0.00 0.20 0.04 72 1011.3
20260905215024 81 211 3.0 10.0 0.00 0.20 0.04 72 1011.4
20260905214832 82 208 3.0 8.0 0.00 0.20 0.04 72 1013.5
20260905214547 82 139 4.0 10.0 0.00 0.20 0.04 71 1011.4
20260905214024 82 242 4.0 10.0 0.00 0.20 0.04 72 1011.5
20260905213802 82 215 4.0 8.0 0.00 0.20 0.04 72 1013.6
20260905213525 82 194 5.0 10.0 0.00 0.20 0.04 71 1011.5
20260905213046 83 172 4.0 9.0 0.00 0.20 0.04 69 1011.5
20260905212527 84 187 2.0 5.0 0.00 0.20 0.04 69 1011.4
20260905212023 84 195 1.0 3.0 0.00 0.20 0.04 69 1011.4
20260905211638 84 174 1.0 5.0 0.00 0.20 0.04 69 1013.5
20260905211617 83 174 1.0 7.0 0.00 0.20 0.04 69 1011.4
20260905211024 84 177 0.0 8.0 0.00 0.20 0.04 68 1011.5
20260905210654 85 299 3.0 6.0 0.00 0.20 0.04 66 1013.6
20260905210525 84 246 3.0 8.0 0.00 0.20 0.04 65 1011.5
20260905210054 85 281 4.0 8.0 0.00 0.20 0.04 64 1011.5
20260905205524 86 142 3.0 8.0 0.00 0.20 0.04 66 1011.4
20260905205025 85 197 3.0 7.0 0.00 0.20 0.04 68 1011.3
20260905204555 85 176 3.0 7.0 0.00 0.20 0.04 67 1011.2
20260905204439 85 181 2.0 6.0 0.00 0.20 0.04 67 1013.1
20260905204024 84 221 3.0 6.0 0.00 0.20 0.04 69 1011.0
20260905203523 84 182 2.0 6.0 0.00 0.20 0.04 69 1011.0
20260905203501 84 224 1.0 4.0 0.00 0.20 0.04 71 1013.1
20260905203103 82 255 0.0 5.0 0.00 0.20 0.04 73 1011.1
20260905202519 81 263 1.0 5.0 0.00 0.20 0.04 75 1011.1
20260905202437 82 220 1.0 4.0 0.00 0.20 0.04 76 1013.2
20260905202025 81 260 2.0 6.0 0.00 0.20 0.04 78 1011.2
20260905201545 80 208 3.0 6.0 0.00 0.20 0.04 78 1011.2
20260905201435 80 247 1.0 4.0 0.00 0.20 0.04 78 1013.3
20260905201024 79 223 1.0 5.0 0.00 0.20 0.04 80 1011.2
20260905200528 79 39 2.0 8.0 0.00 0.20 0.04 81 1011.3
20260905200438 79 211 2.0 8.0 0.00 0.20 0.04 81 1013.4
20260905200053 79 275 1.0 9.0 0.00 0.20 0.04 81 1011.3
20260905195524 78 181 3.0 9.0 0.00 0.20 0.04 82 1011.2
20260905195422 79 162 3.0 8.0 0.00 0.20 0.04 82 1013.3
20260905195027 78 197 3.0 8.0 0.00 0.20 0.04 83 1011.5
20260905194549 78 167 3.0 7.0 0.00 0.20 0.04 83 1011.6
20260905194430 78 210 2.0 5.0 0.00 0.20 0.04 83 1013.7
20260905194028 78 185 1.0 6.0 0.00 0.20 0.04 83 1012.0
20260905193525 77 206 2.0 7.0 0.00 0.20 0.04 83 1011.8
20260905193433 78 168 2.0 6.0 0.00 0.20 0.04 83 1013.9
20260905193043 78 249 2.0 7.0 0.00 0.20 0.04 83 1012.0
20260905192524 78 197 4.0 7.0 0.00 0.20 0.04 83 1011.8
20260905192419 79 216 1.0 6.0 0.00 0.20 0.04 83 1013.8
20260905192024 78 205 2.0 3.0 0.00 0.20 0.04 82 1011.5
20260905191548 79 0 0.0 3.0 0.01 0.20 0.04 81 1011.0
20260905191423 79 269 1.0 2.0 0.00 0.20 0.04 81 1013.0
20260905191026 79 231 1.0 4.0 0.01 0.20 0.04 79 1010.8
20260905190525 79 0 1.0 5.0 0.01 0.20 0.04 78 1010.6
20260905190415 80 120 2.0 4.0 0.00 0.20 0.04 78 1012.6
20260905190048 80 147 3.0 5.0 0.01 0.20 0.04 78 1010.6
20260905185525 80 108 3.0 5.0 0.01 0.20 0.04 78 1011.1
20260905185024 79 85 1.0 3.0 0.01 0.20 0.04 79 1011.4
20260905184549 79 0 0.0 4.0 0.01 0.20 0.04 80 1011.4
20260905184225 80 265 1.0 3.0 0.00 0.20 0.04 79 1013.4
20260905184023 79 265 1.0 4.0 0.01 0.20 0.04 79 1011.4
20260905183526 79 341 2.0 4.0 0.01 0.20 0.04 79 1011.7
20260905183155 80 10 1.0 17.0 0.01 0.20 0.04 78 1013.5
20260905183057 80 34 1.0 6.0 0.01 0.20 0.04 77 1011.5
20260905182525 82 0 2.0 12.0 0.01 0.20 0.04 74 1011.8
20260905182155 84 262 5.0 17.0 0.01 0.20 0.04 70 1013.8
20260905182026 85 276 4.0 23.0 0.01 0.20 0.04 69 1011.8
20260905181604 89 337 9.0 23.0 0.00 0.19 0.03 60 1011.8
20260905181206 91 233 3.0 16.0 0.00 0.19 0.03 60 1013.8
20260905181024 90 266 5.0 13.0 0.00 0.19 0.03 60 1011.6
20260905180526 91 0 1.0 8.0 0.00 0.19 0.03 59 1011.5
20260905180145 92 226 3.0 12.0 0.00 0.19 0.03 59 1013.5
20260905180042 91 307 2.0 13.0 0.00 0.19 0.03 58 1011.4
20260905175525 92 18 2.0 16.0 0.00 0.19 0.03 58 1011.7
20260905175111 94 273 3.0 12.0 0.00 0.19 0.03 56 1013.8
20260905175023 93 262 6.0 16.0 0.00 0.19 0.03 55 1011.8
20260905174555 94 228 3.0 12.0 0.00 0.19 0.03 55 1011.5
20260905174027 94 266 5.0 12.0 0.00 0.19 0.03 55 1011.5
20260905173524 94 224 3.0 11.0 0.00 0.19 0.03 56 1011.7
20260905173049 93 263 3.0 8.0 0.00 0.19 0.03 55 1011.8
20260905173002 94 274 1.0 7.0 0.00 0.19 0.03 55 1013.8
20260905172524 94 254 0.0 9.0 0.00 0.19 0.03 58 1012.0